Flag for Peru Weather past 2 weeks in Arequipa, Arequipa, Peru

Now
52 °F

Passing clouds.


Feels Like: 49 °F
Forecast: 51 / 73 °F
Wind: 7 mph from Northeast

Location: Arequipa Airport

Current Time: Jul 31, 2015 at 10:53:16 PM

Latest Report: Jul 31, 2015 at 10:00 PM


Visibility: N/A

Pressure: 30.33 "Hg (22.88 "Hg at 2345m altitude)

Humidity: 22%

Dew point: 14 °F

Location of ArequipaLocation

Historic Weather in Arequipa — Graph

°F

Arequipa temperature yesterday

Maximum temperature yesterday: 68 °F (at 11:00 AM)
Minimum temperature yesterday: 48 °F (at 3:00 AM)
Average temperature yesterday: 58 °F

Past Weeks' High & Low Weather Summary

 TemperatureHumidityPressure
High77 °F (Jul 25, 1:00 PM)66% (Jul 21, 11:00 PM)30.42 "Hg (Jul 21, 11:00 PM)
Low41 °F (Jul 22, 4:00 AM)4% (Jul 20, 10:00 AM)30.21 "Hg (Jul 25, 2:00 PM)
Average59 °F20%30.31 "Hg
* Reported Jul 16 10:00 PM — Jul 31 10:00 PM, Arequipa, Weather by CustomWeather, © 2015

Note: Actual official high and low records may vary slightly from our data, if they occured in-between our weather recording intervals... More about our weather records

Advertising

Arequipa weather history for previous 24 hours

 ConditionsComfort  
Time TempWeatherWind HumidityBarometerVisibility
10:00 PM
Fri, Jul 31
52 °FPassing clouds.7 mph22%30.33 "HgN/A
9:00 PM55 °FClear.5 mph19%30.33 "Hg10 mi
8:00 PM55 °FClear.8 mph21%30.33 "Hg10 mi
7:00 PM57 °FClear.2 mph21%30.30 "Hg10 mi
6:00 PM59 °FClear.6 mph18%30.30 "Hg10 mi
5:00 PM64 °FPassing clouds.9 mph14%30.27 "HgN/A
4:00 PM68 °FSunny.12 mph12%30.24 "Hg10 mi
3:00 PM68 °FPassing clouds.10 mph12%30.24 "HgN/A
2:00 PM70 °FPassing clouds.12 mph12%30.27 "HgN/A
1:00 PM72 °FPassing clouds.10 mph10%30.27 "HgN/A
12:00 PM70 °FPassing clouds.9 mph10%30.30 "HgN/A
11:00 AM68 °FPassing clouds.12 mph11%30.30 "HgN/A
10:00 AM68 °FPassing clouds.7 mph11%30.33 "HgN/A
9:00 AM66 °FPassing clouds.6 mph12%30.33 "HgN/A
8:00 AM63 °FSunny.3 mph14%30.30 "Hg10 mi
7:35 AM59 °FPassing clouds.6 mph16%30.30 "HgN/A
7:00 AM48 °FSunny.9 mph23%30.30 "Hg10 mi
6:00 AM48 °FClear.6 mph23%30.27 "Hg10 mi
5:00 AM48 °FClear.3 mph25%30.27 "Hg10 mi
4:00 AM48 °FPassing clouds.5 mph25%30.27 "HgN/A
3:00 AM52 °FClear.9 mph24%30.30 "Hg10 mi
2:00 AM50 °FClear.8 mph30%30.33 "Hg10 mi
1:00 AM50 °FClear.7 mph30%30.33 "Hg10 mi
12:00 AM50 °FClear.5 mph30%30.36 "Hg10 mi
11:00 PM
Thu, Jul 30
54 °FClear.3 mph26%30.36 "Hg10 mi
10:00 PM52 °FClear.7 mph30%30.36 "Hg10 mi
Weather by CustomWeather, © 2015

See weather overviewHow to use our weather pages